Weather History for Gatesville, TX

Change the Weather History Date:

Friday, November 23, 2012

  Actual Average (KHLR) Record (KHLR)
Temperature  
Mean Temperature 56 °F -  
Max Temperature 64 °F 65 °F 84 °F (1998)
Min Temperature 48 °F 47 °F 35 °F (2013)
Degree Days  
Heating Degree Days 9    
Growing Degree Days 6 (Base 50)    
Moisture  
Dew Point 38 °F    
Average Humidity 52    
Maximum Humidity 94    
Minimum Humidity 22    
Precipitation  
Precipitation 0.00 in - - ()
Sea Level Pressure  
Sea Level Pressure 30.32 in    
Wind  
Wind Speed 6 mph (NNE)    
Max Wind Speed 18 mph    
Max Gust Speed 26 mph    
Visibility 10 miles    
Events      
Averages and records for this station are not official NWS values.
T = Trace of Precipitation, MM = Missing Value Source: NWS Daily Summary

Daily Weather History Graph

Daily Weather History Graph

Search for Another Location

Airport:

Trip Planner

Search our weather history database for the weather conditions in past years. The results will help you decide how hot, cold, wet, or windy it might be!

Date:

Astronomy

Nov. 23, 2012 Rise Set
Actual Time 7:06 AM CST 5:29 PM CST
Civil Twilight 6:40 AM CST 5:55 PM CST
Nautical Twilight 6:10 AM CST 6:24 PM CST
Astronomical Twilight 5:41 AM CST 6:54 PM CST
Moon 2:31 PM CST 2:41 AM CST
Length of Visible Light 11h 15m
Length of Day
10h 22m
Waxing Gibbous, 80% of the Moon is Illuminated
Nov 23
Waxing Gibbous
Nov 28
Full
Dec 6
Last Quarter
Dec 13
New
Dec 19
First Quarter

Hourly Weather History & Observations

Time (CST) Temp. Dew Point Humidity Pressure Visibility Wind Dir Wind Speed Gust Speed Precip Events Conditions
12:15 AM 64.4 °F 53.6 °F 68% 30.14 in 10.0 mi South 4.6 mph - N/A   Clear
12:55 AM 64.4 °F 55.4 °F 73% 30.14 in 10.0 mi South 5.8 mph - N/A   Clear
1:15 AM 62.6 °F 53.6 °F 72% 30.14 in 10.0 mi South 3.5 mph - N/A   Clear
1:35 AM 60.8 °F 53.6 °F 77% 30.14 in 10.0 mi South 4.6 mph - N/A   Clear
1:55 AM 60.8 °F 55.4 °F 82% 30.15 in 10.0 mi Calm Calm - N/A   Clear
2:15 AM 60.8 °F 55.4 °F 82% 30.15 in 10.0 mi Calm Calm - N/A   Clear
2:35 AM 60.8 °F 55.4 °F 82% 30.15 in 10.0 mi Calm Calm - N/A   Clear
2:55 AM 60.8 °F 55.4 °F 82% 30.16 in 10.0 mi Calm Calm - N/A   Clear
3:15 AM 59.0 °F 55.4 °F 88% 30.16 in 10.0 mi Calm Calm - N/A   Clear
3:35 AM 59.0 °F 55.4 °F 88% 30.17 in 10.0 mi SSE 3.5 mph - N/A   Clear
3:55 AM 57.2 °F 53.6 °F 88% 30.18 in 10.0 mi Calm Calm - N/A   Clear
4:15 AM 55.4 °F 51.8 °F 88% 30.19 in 10.0 mi Calm Calm - N/A   Clear
4:35 AM 55.4 °F 51.8 °F 88% 30.19 in 10.0 mi Calm Calm - N/A   Clear
4:55 AM 55.4 °F 53.6 °F 94% 30.20 in 10.0 mi Calm Calm - N/A   Clear
5:15 AM 55.4 °F 53.6 °F 94% 30.19 in 10.0 mi South 3.5 mph - N/A   Clear
5:35 AM 55.4 °F 53.6 °F 94% 30.19 in 10.0 mi South 4.6 mph - N/A   Clear
5:55 AM 55.4 °F 53.6 °F 94% 30.20 in 9.0 mi Calm Calm - N/A   Clear
6:15 AM 53.6 °F 51.8 °F 94% 30.21 in 8.0 mi Calm Calm - N/A   Clear
6:35 AM 53.6 °F 51.8 °F 94% 30.21 in 10.0 mi Calm Calm - N/A   Clear
6:55 AM 53.6 °F 51.8 °F 94% 30.23 in 8.0 mi Calm Calm - N/A   Clear
7:15 AM 53.6 °F 51.8 °F 94% 30.24 in 10.0 mi NW 3.5 mph - N/A   Clear
7:35 AM 55.4 °F 50.0 °F 82% 30.26 in 10.0 mi NW 4.6 mph - N/A   Clear
7:55 AM 55.4 °F 50.0 °F 82% 30.27 in 10.0 mi NNW 8.1 mph - N/A   Clear
8:15 AM 57.2 °F 51.8 °F 82% 30.28 in 10.0 mi North 12.7 mph - N/A   Clear
8:35 AM 59.0 °F 53.6 °F 82% 30.30 in 10.0 mi NNE 13.8 mph 21.9 mph N/A   Clear
8:55 AM 60.8 °F 53.6 °F 77% 30.32 in 10.0 mi NNE 11.5 mph 20.7 mph N/A   Partly Cloudy
9:15 AM 60.8 °F 51.8 °F 72% 30.33 in 10.0 mi NNE 11.5 mph 21.9 mph N/A   Mostly Cloudy
9:35 AM 62.6 °F 50.0 °F 63% 30.35 in 10.0 mi NNE 11.5 mph 21.9 mph N/A   Mostly Cloudy
9:55 AM 62.6 °F 48.2 °F 59% 30.35 in 10.0 mi NNE 13.8 mph 23.0 mph N/A   Overcast
10:15 AM 62.6 °F 46.4 °F 55% 30.37 in 10.0 mi NNE 15.0 mph 23.0 mph N/A   Overcast
10:35 AM 62.6 °F 44.6 °F 52% 30.37 in 10.0 mi NNE 13.8 mph 26.5 mph N/A   Overcast
10:55 AM 62.6 °F 44.6 °F 52% 30.38 in 10.0 mi North 13.8 mph 20.7 mph N/A   Overcast
11:15 AM 62.6 °F 42.8 °F 48% 30.38 in 8.0 mi North 16.1 mph 20.7 mph N/A   Overcast
11:35 AM 62.6 °F 42.8 °F 48% 30.38 in 10.0 mi North 16.1 mph 20.7 mph N/A   Overcast
11:55 AM 62.6 °F 39.2 °F 42% 30.38 in 10.0 mi NNE 16.1 mph 25.3 mph N/A   Overcast
12:15 PM 62.6 °F 37.4 °F 39% 30.37 in 10.0 mi NNE 18.4 mph 23.0 mph N/A   Overcast
12:35 PM 62.6 °F 35.6 °F 37% 30.37 in 10.0 mi NNE 15.0 mph 23.0 mph N/A   Overcast
12:55 PM 62.6 °F 33.8 °F 34% 30.37 in 10.0 mi NE 13.8 mph 21.9 mph N/A   Overcast
1:15 PM 64.4 °F 32.0 °F 30% 30.37 in 10.0 mi NNE 13.8 mph 18.4 mph N/A   Overcast
1:35 PM 64.4 °F 30.2 °F 28% 30.36 in 10.0 mi NNE 13.8 mph - N/A   Overcast
1:55 PM 64.4 °F 28.4 °F 26% 30.36 in 10.0 mi NNE 12.7 mph 23.0 mph N/A   Overcast
2:15 PM 62.6 °F 28.4 °F 27% 30.37 in 10.0 mi NNE 8.1 mph 23.0 mph N/A   Overcast
2:35 PM 62.6 °F 26.6 °F 26% 30.37 in 10.0 mi NNE 11.5 mph 18.4 mph N/A   Overcast
2:55 PM 64.4 °F 26.6 °F 24% 30.37 in 10.0 mi NNE 9.2 mph - N/A   Overcast
3:15 PM 64.4 °F 24.8 °F 22% 30.37 in 10.0 mi NE 10.4 mph 17.3 mph N/A   Overcast
3:35 PM 64.4 °F 24.8 °F 22% 30.37 in 10.0 mi NE 8.1 mph - N/A   Overcast
3:55 PM 64.4 °F 24.8 °F 22% 30.37 in 10.0 mi NNE 9.2 mph 17.3 mph N/A   Overcast
4:15 PM 64.4 °F 24.8 °F 22% 30.37 in 10.0 mi NNE 10.4 mph 18.4 mph N/A   Overcast
4:35 PM 62.6 °F 23.0 °F 22% 30.38 in 10.0 mi NNE 8.1 mph 16.1 mph N/A   Mostly Cloudy
4:55 PM 62.6 °F 23.0 °F 22% 30.38 in 10.0 mi NNE 5.8 mph - N/A   Clear
5:15 PM 62.6 °F 24.8 °F 24% 30.38 in 10.0 mi NNE 6.9 mph - N/A   Clear
5:35 PM 62.6 °F 24.8 °F 24% 30.38 in 10.0 mi NNE 8.1 mph - N/A   Mostly Cloudy
5:55 PM 62.6 °F 24.8 °F 24% 30.39 in 10.0 mi NNE 8.1 mph - N/A   Overcast
6:15 PM 60.8 °F 26.6 °F 27% 30.40 in 10.0 mi NNE 5.8 mph - N/A   Overcast
6:35 PM 60.8 °F 26.6 °F 27% 30.41 in 10.0 mi NNE 3.5 mph - N/A   Mostly Cloudy
6:55 PM 60.8 °F 26.6 °F 27% 30.42 in 10.0 mi NNE 5.8 mph - N/A   Mostly Cloudy
7:15 PM 60.8 °F 24.8 °F 25% 30.42 in 10.0 mi NNE 6.9 mph - N/A   Mostly Cloudy
7:35 PM 60.8 °F 23.0 °F 23% 30.42 in 10.0 mi NNE 6.9 mph - N/A   Mostly Cloudy
7:55 PM 60.8 °F 23.0 °F 23% 30.43 in 10.0 mi NNE 8.1 mph - N/A   Mostly Cloudy
8:15 PM 59.0 °F 23.0 °F 25% 30.43 in 10.0 mi NNE 9.2 mph 16.1 mph N/A   Mostly Cloudy
8:35 PM 57.2 °F 21.2 °F 25% 30.43 in 10.0 mi NNE 5.8 mph - N/A   Mostly Cloudy
8:55 PM 57.2 °F 21.2 °F 25% 30.43 in 10.0 mi NNE 5.8 mph - N/A   Scattered Clouds
9:15 PM 55.4 °F 21.2 °F 26% 30.44 in 10.0 mi NNE 4.6 mph - N/A   Mostly Cloudy
9:35 PM 55.4 °F 23.0 °F 29% 30.44 in 10.0 mi NNE 6.9 mph - N/A   Scattered Clouds
9:55 PM 55.4 °F 23.0 °F 29% 30.45 in 10.0 mi NNE 5.8 mph - N/A   Partly Cloudy
10:15 PM 53.6 °F 23.0 °F 30% 30.45 in 10.0 mi North 3.5 mph - N/A   Partly Cloudy
10:35 PM 51.8 °F 23.0 °F 33% 30.46 in 10.0 mi North 3.5 mph - N/A   Scattered Clouds
10:55 PM 51.8 °F 23.0 °F 33% 30.45 in 10.0 mi North 3.5 mph - N/A   Scattered Clouds
11:15 PM 48.2 °F 23.0 °F 37% 30.44 in 10.0 mi North 4.6 mph - N/A   Partly Cloudy
11:35 PM 48.2 °F 23.0 °F 37% 30.44 in 10.0 mi North 3.5 mph - N/A   Clear